Regional Weather Roundup
Issued by NWS Kansas City/Pleasant Hill, MO

Home | Current Version | Previous Version | Text Only | Print | Product List | Glossary On
Versions: 1 2 3 4 5 6 7 8 9 10 11 12 13 14 15 16 17 18 19 20 21 22 23 24 25 26 27 28 29 30 31 32 33 34 35 36 37 38 39 40 41 42 43 44 45 46 47 48 49 50
000
ASUS43 KEAX 051710
RWREAX

WEATHER ROUNDUP FOR EASTERN KANSAS AND NORTHWEST MISSOURI
NATIONAL WEATHER SERVICE KANSAS CITY/PLEASANT HILL MO
1200 PM CDT SAT SEP 05 2015

KSZ040-057-103>105-MOZ028-029-037-043-051800-
...KANSAS CITY METROPOLITAN AREA...

CITY           SKY/WX    TMP DP  RH WIND       PRES   REMARKS
K.C. INTL      MOSUNNY   89  71  55 S12       30.03F HX  95
K.C. DOWNTOWN  SUNNY     90  71  53 S9        30.02F HX  96
LEES SUMMIT    SUNNY     87  71  58 S9        30.05F HX  93
OLATHE - IXD   SUNNY     88  72  58 S13       30.05S HX  94
OLATHE - OJC   SUNNY     86  72  62 S10       30.04S HX  92
LAWRENCE       SUNNY     90  71  53 S14       30.02S HX  96

$$

MOZ001>008-011>017-020>025-030>033-038>040-044>046-053-054-051800-
...NORTHERN AND CENTRAL MISSOURI...

CITY           SKY/WX    TMP DP  RH WIND       PRES   REMARKS
ST. JOSEPH     SUNNY     88  73  61 S12       30.01S HX  95
MOSBY          SUNNY     88  70  55 S9        30.03S HX  92
WARRENSBURG    SUNNY     88  68  51 S8        30.05F HX  91
WHITEMAN AFB   SUNNY     90  70  52 SW13      30.05F HX  95
CLINTON          N/A     90  72  55 S9        30.07F HX  96
SEDALIA        SUNNY     91  71  51 S9        30.08F HX  97
WARSAW         NOT AVBL
CHILLICOTHE      N/A     89  73  59 SE6       30.04F HX  97
KIRKSVILLE     MOSUNNY   89  70  53 S9        30.08F HX  94

$$

MOZ041-047>049-056>058-063>065-088>090-097-051800-
...EASTERN AND SOUTHERN MISSOURI...

CITY           SKY/WX    TMP DP  RH WIND       PRES   REMARKS
ST. LOUIS INTL MOSUNNY   91  68  46 S9        30.10F HX  95
SPIRIT OF STL  MOSUNNY   89  69  51 VRB6      30.08F HX  93
COLUMBIA       PTSUNNY   87  72  60 S8        30.09F HX  93
JEFFERSON CITY MOSUNNY   88  69  53 S7        30.07F HX  92
ROLLA          FAIR      90  67  46 SW12      30.11S HX  93
OSAGE BEACH    SUNNY     90  70  51 SW6       30.10S HX  95
SPRINGFIELD    SUNNY     88  70  55 S8        30.10S HX  93
BRANSON        SUNNY     88  70  55 SE5       30.12S HX  92
JOPLIN         MOSUNNY   87  72  60 S13       30.08S HX  93
WEST PLAINS    MOSUNNY   86  68  54 CALM      30.14S

$$

IAZ060-094-KSZ022-034>040-054-083-096-NEZ052-066-093-051800-
...KANSAS...SOUTHEAST NEBRASKA AND IOWA...

CITY           SKY/WX    TMP DP  RH WIND       PRES   REMARKS
TOPEKA         SUNNY     90  70  51 SW16G22   30.01R HX  95
MANHATTAN      MOSUNNY   92  68  45 SW18      29.97F HX  96
EMPORIA        MOSUNNY   89  69  51 S15       30.01F HX  93
CHANUTE        SUNNY     87  72  60 S13       30.05S HX  93
WICHITA        PTSUNNY   89  68  49 S16       30.00F HX  93
OMAHA          PTSUNNY   89  71  55 S20       29.94F HX  95
LINCOLN        SUNNY     90  70  51 S20G29    29.93F HX  95
FALLS CITY     SUNNY     91  71  51 S13       29.98F HX  97
LAMONI         SUNNY     86  72  62 S9        30.03F HX  92
DES MOINES     PTSUNNY   87  71  58 S12       30.00F HX  93

$$



USA.gov is the U.S. government's official web portal to all federal, state and local government web resources and services.